Preview of NWS' New Version of Forecast
This preview is not operational and should not be used for support decisions.

Regional Weather Roundup (RWR)

Issued by National Weather Service (NWS)

                            
000
ASUS43 KTOP 201859
RWRKS 

WEATHER ROUNDUP FOR KANSAS
NATIONAL WEATHER SERVICE GOODLAND KS
200 PM CDT WED MAR 20 2019

NOTE:  "FAIR" INDICATES FEW OR NO CLOUDS BELOW 12,000 FEET WITH NO
SIGNIFICANT WEATHER AND/OR OBSTRUCTIONS TO VISIBILITY.

KSZ001>006-013>018-027>032-041>047-202000-
NORTHWEST KANSAS
  
CITY           SKY/WX    TMP DP  RH WIND       PRES   REMARKS
GOODLAND       SUNNY     57  16  20 N21G30    30.21F                  
HAYS           SUNNY     57  27  31 NW17G23   30.18F                  
HILL CITY      SUNNY     58  27  30 NW14G28   30.18F                  
RUSSELL        SUNNY     57  28  33 W18       30.16F                  
$$

KSZ061>065-074>080-084>089-202000-
SOUTHWEST KANSAS
  
CITY           SKY/WX    TMP DP  RH WIND       PRES   REMARKS
DODGE CITY     SUNNY     58  22  24 NW20G31   30.22F                  
GARDEN CITY    SUNNY     57  16  20 NW22G36   30.22F                  
GREAT BEND     SUNNY     56  26  31 W15G22    30.19F                  
LIBERAL        SUNNY     59  17  19 NW20      30.26F                  
$$

KSZ066>073-081>083-090>101-202000-
SOUTHEAST KANSAS
  
CITY           SKY/WX    TMP DP  RH WIND       PRES   REMARKS
CHANUTE        PTSUNNY   54  40  59 W12       30.18F                  
COFFEYVILLE    CLOUDY    55  37  50 NW14G21   30.19F                  
HUTCHINSON     SUNNY     57  28  33 NW18G26   30.19F                  
MEDICINE LODGE   N/A     58  25  28 NW10G29   30.22F                  
NEWTON         MOSUNNY   55  33  43 NW18G28   30.19F                  
PARSONS        CLOUDY    55  38  52 NW13      30.20F                  
WICHITA INTL   MOSUNNY   56  33  42 W13       30.21F                  
WICHITA JABRA  SUNNY     55  31  39 W14       30.20F                  
WICHITA MCCONL MOSUNNY   55  33  44 NW16      30.20F                  
WINFIELD       MOSUNNY   56  34  43 W15G25    30.22F                  
$$

KSZ007>012-019>026-033>040-048>060-102>105-202000-
NORTHEAST KANSAS
  
CITY           SKY/WX    TMP DP  RH WIND       PRES   REMARKS
CONCORDIA      SUNNY     56  33  42 W14       30.12F                  
EMPORIA        MOSUNNY   56  34  43 W20G29    30.15F                  
LAWRENCE       SUNNY     56  36  47 NW14G25   30.13F                  
MANHATTAN      SUNNY     57  34  41 W13G26    30.13F                  
OLATHE IND     MOSUNNY   53  41  63 W17       30.13F                  
OLATHE EXE     MOSUNNY   52  39  61 W13G18    30.11F                  
SALINA         SUNNY     58  33  39 W18G24    30.17F                  
TOPEKA BILLARD SUNNY     56  36  47 W16G24    30.12F                  
TOPEKA FORBES  SUNNY     57  35  43 NW18G28   30.12F                  
$$